Location: La Sioule Rivi�re
(46.3664°N, 3.3197°E)
Time: 11:54:02
(UTC+00:00)

Cosmos 1340 - Pass Details

Date: 29 October 2020
Orbit: 501 x 504 km, 81.2° (Epoch: 23 November)

Event Time Altitude Azimuth Distance (km) Brightness Sun altitude
Rises 17:20:48 0° 353° (N) 2,617 6.2 -8.3°
Reaches altitude 10° 17:22:59 10° 359° (N) 1,727 5.3 -8.7°
Maximum altitude 17:26:41 51° 76° (ENE) 640 2.8 -9.3°
Drops below altitude 10° 17:30:21 10° 153° (SSE) 1,713 5.2 -9.9°
Sets 17:32:31 0° 159° (SSE) 2,593 6.1 -10.3°
